STARLINK-37008, 68564

Orbit data source: Space-Track

STARLINK-37008, 68564 is a payload satellite owned by SpaceX/Seattle (US) in LEO that was launched on Thu, 02 Apr 2026 UTC via an FALCON 9 launch vehicle from the Air Force Eastern Test Range (AFETR). Payload-class satellites include a variety of spacecraft equipped with specific instruments for various scientific and technological missions. These include communications satellites like Starlink; space stations such as the ISS; scientific satellites like the Hubble; Earth observation satellites from companies like Planet Labs, Umbra, and HawkEye 360; GPS; miniature CubeSats for education and research; and military/defense satellites.

Loading next visibility...
Identifier
68564, 2026-070Y
Orbit
LEO
Country
Flag of USUS
Related business
Manufacturer
SpaceX/Seattle
Mission
Operational Commercial Communications
Bus & Motor
STARLINK V2MO, Unknown motor
Mass
575 kg wet, ~530 kg dry
Launch date (UTC)
2026-04-02 (5 months ago)
Launch vehicle
FALCON 9
Launch site
Air Force Eastern Test Range (AFETR)
Object type
Payload
Rocket body
Debris
Shape & HBR
Box + 1 Pan, 17.7 m
Radar Cross Section
41.120 m², Large (>1 m²)

Expand to show TLE details & history
Last TLE update: 9 hours ago

TLE from 9 hours ago
0 STARLINK-37008
1 68564U 26070Y   26247.03690117 -.00005104  00000-0 -14012-3 0  9995
2 68564  53.1575 250.3863 0000702  28.9225 331.1817 15.34380376 23910
Epoch: 2026-09-04T00:53Z
TLE epoch observation values (Epoch: 2026-09-04T00:53:08.261Z)
Latitude
0.00005°
Longitude
-106.06457°
Altitude
463.242 km
Speed
7.636 km/s
True Right ascension
16h 41m 32s
True Declination
0° 00' 00"
Sunlit
Object was in daylight at epoch
Visualization orbit readout
Latitude
Unknown
Longitude
Unknown
Altitude
Unknown
Speed
Unknown
Apparent Right ascension
Unknown
Apparent Declination
Unknown
Sunlit
N/A
Visualization observer readout
Local Sidereal Time
02:04:12
Azimuth
Unknown
Elevation
Unknown
Doppler factor
Unknown
Orbital elements
Apogee altitude
463.499 km
Perigee altitude
462.539 km
Semi-major axis
6,841.156 km
Eccentricity
0.00007
Inclination
53.1575°
RAAN
250.3863°
Arg. of periapsis
28.9225°
True anomaly
331.17782°
Mean anomaly
331.1817°
Eccentric anomaly
331.17976°
Mean motion
3.83574 °/min
Orbital period
93.85 mins
BSTAR
-0.00014012
Loading maneuver chart data...
Computing Atmospheric mass density...
Loading historical data...
Loading historical data...
Loading historical data...
Loading historical data...
Loading historical data...
Loading historical data...
Loading historical data...

Documentation

Showing up to 5 results
|